Simultaneous Nadir Overpasses (SNOs) Predictions

Prediction of SNOs between AQUA and NPP Satellite Orbit:

Table of predicted SNOs for the next 14.0 days since TLE Epoch: 12/12/2015
Index Date (AQUA) Time (AQUA) Lat,Lon (AQUA) SZA (AQUA ) Date (NPP) Time (NPP) Lat,Lon (NPP) SZA (NPP ) Distance(km) Time Diff (sec)
1 12/13/2015 12:27:01 -73.60, 46.31 58.12 12/13/2015 12:26:25 -73.61, 46.38 58.10 2.33 36
2 12/13/2015 13:15:55 75.20,-142.20 120.27 12/13/2015 13:16:36 75.21,-142.13 120.21 2.16 41
3 12/16/2015 04:43:16 -74.28, 163.71 58.57 12/16/2015 04:43:05 -74.29, 163.79 58.58 2.51 11
4 12/16/2015 05:32:22 75.25, -26.18 120.44 12/16/2015 05:33:29 75.24, -26.27 120.40 2.57 67
5 12/18/2015 20:10:39 73.06, 109.33 122.82 12/18/2015 20:09:37 73.07, 109.40 122.86 2.62 62
6 12/18/2015 20:59:40 -74.47, -79.95 58.59 12/18/2015 20:59:55 -74.46, -79.98 58.59 0.88 15
7 12/21/2015 12:26:56 73.60,-133.68 122.41 12/21/2015 12:26:20 73.60,-133.65 122.44 0.98 36
8 12/21/2015 13:15:59 -74.88, 36.98 58.90 12/21/2015 13:16:40 -74.88, 36.91 58.92 2.33 41
9 12/24/2015 04:43:09 74.26, -16.29 121.81 12/24/2015 04:42:59 74.27, -16.26 121.81 1.28 10




NCC Satellite Simultaneous Nadir Overpasses (SNOs) Prediction Service
